STARLINK-1706 (46560 NORAD) Tracking and Keplerian Element Data

This shows tracking and keplerian element data for the satellite.

Feedback or suggestion? Click here.




ElementValue
Catalog46560
NameSTARLINK-1706
Epoch Orbit999
Epoch Day339.00002315
Epoch Year2020
RAAN155.0592
Inclination52.9996
Eccentricity0.0002358
Argument of Perigee26.8026
Mean Anonmoly209.947
Mean Motion15.62753846
Decay Rate-0.00019867
L11 46560U 20070AE 20339.00002315 -.00019867 00000-0 -21161-3 0 9995
L22 46560 52.9996 155.0592 0002358 26.8026 209.9470 15.62753846 9997

Live tracking and technical data element details for STARLINK-1706 (NORAD 46560). STARLINK-1706 can be tracked NOW for your location showing map with azimuth and elevation plus other details from your city location.

Track the satellite on the map from your city or location and see movement details for azimuth, elevation, latitude, longitude, range, height, and movement on the map or in text.







IsCatalogInMostPopularTable: catalog: 46560, numindb: 19
Update: records affected: 1



GetName: 46560 STARLINK-1706

Hit Count: updated at: Sat, 05 Dec 2020 05:58:28 GMT